User: anonymous   Login
Location: Allentsteig
(48.6833°N, 15.3167°E)
Time: 01:07:34
(UTC+00:00)
Language:

H-2A R/B - Orbit

View from above orbital plane
View from above orbital plane
View from above satellite
View from above satellite

Ground track
Ground track

The orbit data is extracted from the following two-line orbital elements,

1 27601U 02056E   20328.13263263  .00000095  00000-0  49112-4 0  9995
2 27601  98.2104 355.6173 0072531 164.0912 213.9716 14.31984538937399
Epoch (UTC): 23 November 2020 03:10:59
Eccentricity: 0.0072531
inclination: 98.2104°
perigee height: 733 km
apogee height: 837 km
right ascension of ascending node: 355.6173°
argument of perigee: 164.0912°
revolutions per day: 14.31984538
mean anomaly at epoch: 213.9716°
orbit number at epoch: 93739

The dashed part of the orbit path shows where the satellite is in the earth's shadow,  

DLR